Find Chamran-1

NORAD ID: 61072 Int'l Des: 2024-165 Owner: IEI/IRSA Country: IR operational
LEOCIRCULAR

Live-Position

3D-Globus wird geladen...

Über Chamran-1

Beschreibung wird geladen...

Nächste Überflüge

Passes for default location (London). Set your location on the main map for personalized predictions.

Höhenverlauf

Loading altitude history...

Zweizeiliger Elementsatz

1 61072U 24165B 26106.84723946 .00002656 00000-0 16769-3 0 9993
2 61072 64.0764 243.8049 0048490 309.4500 50.2329 15.10610473 87397
Epoch: 16. Apr. 2026 • Age: 22 hours

Aktueller Status

Höhe 542.2 km
Geschwindigkeit 7.59 km/s
Subsatellitenpunkt 39.78°N, 136.92°E
Startdatum 14. Sept. 2024
Alter 1.5 years
Typ other

Technische Details

Klassifizierung Payload
Masse 60.00 kg
Trockenmasse 60.00 kg
Gesamtmasse 60.00 kg
Länge 0.50 m
Durchmesser 0.50 m
Spannweite 0.50 m
Form Box
Hersteller IEI
Phasenstatus In Orbit
Besitzer/Staat IEI/IRSA/IR

Most Searched